• MPC Preparation (Info)

  • MPEC 2022-K159 : 2022 KL5

    The following Minor Planet Electronic Circular may be linked-to from your own Web pages, but must not otherwise be redistributed electronically.

    A form allowing access to any MPEC is at the bottom of this page.


    Read MPEC 2022-K158 Read MPEC 2022-K160


    M.P.E.C. 2022-K159                                 Issued 2022 May 30, 07:49 UT
    
         The Minor Planet Electronic Circulars contain information on unusual
             minor planets and routine data on comets.  They are published
        on behalf of Division F of the International Astronomical Union by the
              Minor Planet Center, Smithsonian Astrophysical Observatory,
                              Cambridge, MA 02138, U.S.A.
    
                 Prepared using the Tamkin Foundation Computer Network
    
                                  MPC@CFA.HARVARD.EDU
                URL https://www.minorplanetcenter.net/    ISSN 1523-6714
    
                                    2022 KL5                                 
    
    
    Observations:
         K22K05L* C2022 05 27.41127013 25 23.024+20 08 00.33         21.57wUEK159F52
         K22K05L  C2022 05 27.42523813 25 19.502+20 08 16.93         22.26wUEK159F52
         K22K05L  C2022 05 27.43930213 25 15.989+20 08 33.78         21.57wUEK159F52
         K22K05L 1C2022 05 28.02240 13 22 51.71 +20 20 11.0          21.2 VXEK159033
         K22K05L 1C2022 05 28.02598 13 22 50.83 +20 20 15.0          21.5 VXEK159033
         K22K05L 1C2022 05 28.02957 13 22 49.90 +20 20 19.1          21.9 VXEK159033
         K22K05L KC2022 05 28.14750013 22 21.482+20 22 46.81         21.80GVEK159I52
         K22K05L KC2022 05 28.15056713 22 20.791+20 22 50.81         21.88GVEK159I52
         K22K05L KC2022 05 28.15363313 22 19.960+20 22 53.83         21.90GVEK159I52
         K22K05L KC2022 05 28.15670013 22 19.168+20 22 57.32         21.43GVEK159I52
         K22K05L ^C2022 05 28.43730813 21 08.549+20 28 32.01         22.00GVEK159568
         K22K05L ^C2022 05 28.43851913 21 08.250+20 28 33.40         21.86GVEK159568
         K22K05L ^C2022 05 28.43994713 21 07.887+20 28 35.00         21.93GVEK159568
         K22K05L ^C2022 05 28.44115613 21 07.584+20 28 36.44         21.88GVEK159568
         K22K05L ^C2022 05 28.45420113 21 04.289+20 28 51.47         21.61GVEK159568
         K22K05L ^C2022 05 28.45541013 21 03.981+20 28 52.95         21.65GVEK159568
         K22K05L ^C2022 05 28.45674613 21 03.647+20 28 54.44         21.74GVEK159568
         K22K05L ^C2022 05 28.45795413 21 03.345+20 28 55.83         21.53GVEK159568
         K22K05L 1C2022 05 28.93405 13 19 05.21 +20 38 05.3          21.8 VXEK159033
         K22K05L 1C2022 05 28.93764 13 19 04.35 +20 38 09.6          21.6 VXEK159033
         K22K05L 1C2022 05 28.94122 13 19 03.42 +20 38 13.6          21.5 VXEK159033
         K22K05L KC2022 05 29.12140713 18 18.89 +20 41 45.0          22.0 VuEK159H21
         K22K05L KC2022 05 29.12604913 18 17.70 +20 41 50.6          21.5 VuEK159H21
         K22K05L KC2022 05 29.13069713 18 16.50 +20 41 56.1          22.3 VuEK159H21
         K22K05L 1C2022 05 29.98454 13 14 42.39 +20 57 56.8          21.2 VXEK159033
         K22K05L 1C2022 05 29.98812 13 14 41.50 +20 58 00.5          21.7 VXEK159033
         K22K05L 1C2022 05 29.99170 13 14 40.59 +20 58 04.1          21.9 VXEK159033
         K22K05L KC2022 05 30.20874313 13 46.528+21 02 10.46         22.16GVEK159I52
         K22K05L KC2022 05 30.21257713 13 45.548+21 02 15.11         21.74GVEK159I52
         K22K05L KC2022 05 30.23386713 13 40.105+21 02 38.08         22.16GVEK159I52
         K22K05L KC2022 05 30.23769913 13 39.493+21 02 40.60         21.36GVEK159I52
    
    Observer details:
    033 Karl Schwarzschild Observatory, Tautenburg.  Observers S. Melnikov, C.
        Hoegner, U. Laux, F. Ludwig, B. Stecklum.  Measurer B. Stecklum.  1.34-m
        f/3 Schmidt + CCD.
    568 Mauna Kea.  Observers R. Wainscoat, C. Cunningham, T. Burdullis.
        Measurers R. Weryk, R. Wainscoat.  3.6-m Canada-France-Hawaii Telescope +
        CCD.
    F52 Pan-STARRS 2, Haleakala.  Observers J. Bulger, T. Lowe, A. Schultz, I.
        Smith.  Measurers K. Chambers, S. Chastel, T. de Boer, J. Fairlamb, H.
        Gao, M. Huber, C.-C. Lin, E. Magnier, Y. Ramanjooloo, R. Wainscoat, R.
        Weryk.  1.8-m Ritchey-Chretien + CCD.
    H21 Astronomical Research Observatory, Westfield.  Observer R. Holmes.
        Measurers T. Linder, R. Holmes, L. Horn.  1.3-m f/4.0 astrograph + CCD.
    I52 Steward Observatory, Mt. Lemmon Station.  Observer A. Serrano.  Measurers
        E. J. Christensen, D. Fay, J. B. Fazekas, D. C. Fuls, A. R. Gibbs, A. D.
        Grauer, H. Groeller, J. K. Hogan, R. A. Kowalski, S. M. Larson, G. J.
        Leonard, D. Rankin, R. L. Seaman, A. Serrano, F. C. Shelly, K. W.
        Wierzchos.  1.0-m prime focus + CCD.
    
    Orbital elements:
    2022 KL5                                                 Earth MOID = 0.0788 AU
    Epoch 2022 Jan. 21.0 TT = JDT 2459600.5                 Veres                   
    M 304.08235              (2000.0)            P               Q                  
    n   0.28585121     Peri.  221.67297     +0.99015264     +0.04986092             
    a   2.2823173      Node   134.94640     -0.01264654     +0.96245926             
    e   0.8412419      Incl.   10.65079     -0.13941956     +0.26680715             
    P   3.45           H   20.88          G   0.15           U   9                  
    Residuals in seconds of arc
    220527 F52  0.0   0.1+    220528 568  0.0   0.0     220529 H21  0.3+  0.0
    220527 F52  0.0   0.1-    220528 568  0.0   0.0     220529 H21  0.0   0.2+
    220527 F52  0.4+  0.1-    220528 568  0.0   0.0     220529 033  0.2-  0.2+
    220528 033  0.3-  0.2+    220528 568  0.0   0.0     220529 033  0.0   0.0
    220528 033  0.1-  0.0     220528 568  0.0   0.1+    220529 033  0.1-  0.4-
    220528 033  0.5-  0.1-    220528 568  0.0   0.0     220530 I52  0.1-  0.4-
    220528 I52  0.6-  0.2+    220528 568  0.1+  0.0     220530 I52  0.1-  0.1+
    220528 I52  0.6+  0.6+    220528 033  0.4-  0.1-    220530 I52  0.2+  0.2-
    220528 I52  0.1-  0.1-    220528 033  0.3+  0.0     220530 I52 (5.4+  1.8-)
    220528 I52  0.3-  0.3-    220528 033  0.1-  0.1-
    220528 568  0.1-  0.0     220529 H21  0.3+  0.3-
    
    Ephemeris:
    2022 KL5                 a,e,i = 2.28, 0.84, 11                  q = 0.3623
    Date    TT    R. A. (2000) Decl.     Delta      r    Elong.  Phase     V
    2022 04 30    14 56 28.1 +08 36 22   0.7833  1.7511   155.7    13.7    22.4
    ...
    2022 05 15    14 13 04.0 +15 12 22   0.6404  1.5641   141.6    23.7    22.0
    ...
    2022 05 23    13 43 13.3 +18 31 48   0.5910  1.4581   128.9    32.7    21.9
    ...
    2022 05 29    13 18 49.4 +20 39 29   0.5645  1.3754   118.5    40.4    21.9
    2022 05 30    13 14 39.3 +20 58 22   0.5608  1.3614   116.7    41.7    21.9
    2022 05 31    13 10 28.1 +21 16 31   0.5574  1.3472   114.9    43.0    21.9
    ...
    2022 06 06    12 45 07.6 +22 49 22   0.5400  1.2607   104.2    51.3    21.9
    ...
    2022 06 14    12 11 16.0 +24 11 56   0.5230  1.1403    89.8    62.9    22.0
    ...
    2022 06 29    11 05 25.7 +25 08 38   0.4978  0.8982    62.0    88.6    22.3
    
    M. P. C. Staff               (C) Copyright 2022 MPC           M.P.E.C. 2022-K159
    


    Read MPEC 2022-K158 Read MPEC 2022-K160


    MPEC number:

    Enter an MPEC number in one of the following forms:

    • 1997-B01 (the full form)
    • J97B01 (the packed version of the full form)
    • B01 (the abbreviated form)